Погода в Бхактапуре

Непал     27°40′28″N   85°25′46″E
темп.,
°C
ветер,
м/с
пор.,
м/с
влажн.,
%
обл.,
%
осадки,
мм/ч
давл.,
гПа
погр.,
м
16 мая, пн
пн1623:45+20ссв11682 0.0 100812
02:45+18св11740 0.0 100614
05:45+18зсз11722 0.0 100812
08:45+25ююв11492 0.1 1007906
11:45+29з233289 0.1 10053032
14:45+26св234393 0.1 1004868
17:45+20ссв226619 0.9 100690
20:45+19ссв227051 0.8 100720
17 мая, вт
вт1723:45+18с11661 0.8 100616
02:45+19св115948 0.0 100513
05:45+18з016146 0.0 100712
08:45+25юв10411 0.0 1006474
11:45+31з15282 0.0 10042887
14:45+31ююз352776 0.1 10003456
17:45+22сз347167 4.4 1004218
20:45+15св469093 12.4 1012260
18 мая, ср
ср1823:45+16юз017690 12.6 100916
02:45+17ссз016719 0.0 100714
05:45+17с11655 0.0 100813
08:45+25ю11434 0.0 1008526
11:45+29з26303 0.0 10052888
14:45+29з352840 0.0 10033037
17:45+25всв024934 0.1 1004105
20:45+20зюз2371100 0.9 1009107
19 мая, чт
чт1923:45+19св117032 0.9 100816
02:45+18св116521 0.0 100714
05:45+18ссв116159 0.0 100913
08:45+25ю114113 0.0 1008682
11:45+30юз142990 0.0 10063328
14:45+26св134198 0.0 1004947
17:45+22юв226089 0.0 1004130
20:45+20ссв116025 0.0 100413
20 мая, пт
пт2023:45+19св015689 0.0 100515
02:45+19ююз1165100 0.4 100518
05:45+18всв117462 0.8 100713
08:45+23в115375 0.1 1006533
11:45+26ю224512 0.1 10031094
14:45+27с124395 0.2 9991329
17:45+20зюз127880 3.2 1002118
20:45+18ссз2393100 8.5 1005140